Location: Newark
(5.8900°S, 42.6378°W)
Time: 16:26:38
(UTC+00:00)

OTV 5 (USA 277) - Pass Details

Date: 27 August 2019
Orbit: 295 x 339 km, 54.5° (Epoch: 08 September)

Event Time Altitude Azimuth Distance (km) Brightness Sun altitude
Exits shadow 07:07:12 12° 97° (E) 1,116 ? -26.8°
Drops below altitude 10° 07:07:28 11° 102° (ESE) 1,190 ? -26.8°
Sets 07:09:57 0° 125° (SE) 2,062 ? -26.2°
